Location: Moreno
(33.9175°N, 117.1578°W)
Time: 06:43:04
(UTC+00:00)

H-2A R/B - Pass Details

Date: 18 April 2024
Orbit: 732 x 832 km, 98.2° (Epoch: 28 May)

Event Time Altitude Azimuth Distance (km) Brightness Sun altitude
Rises 12:41:50 0° 4° (N) 3,216 5.6 -7.1°
Reaches altitude 10° 12:44:10 10° 359° (N) 2,301 4.7 -6.7°
Maximum altitude 12:49:00 46° 287° (WNW) 1,036 2.4 -5.7°
Drops below altitude 10° 12:53:56 10° 215° (SW) 2,350 4.1 -4.7°
Sets 12:56:21 0° 209° (SSW) 3,292 4.8 -4.2°
